Location: Łódź
(51.7951°N, 19.4477°E)
Time: 12:28:13
(UTC+02:00)

ISS - Pass Details

Date: 28 January 2019
Orbit: 411 x 421 km, 51.6° (Epoch: 16 October)

Event Time Altitude Azimuth Distance (km) Brightness Sun altitude
Rises 17:30:20 0° 240° (WSW) 2,365 1.9 -10.4°
Reaches altitude 10° 17:32:27 10° 235° (SW) 1,504 0.3 -10.8°
Maximum altitude 17:35:45 50° 158° (SSE) 543 -3.3 -11.2°
Enters shadow 17:37:59 18° 88° (E) 1,099 -2.3 -11.6°
